This is the latest recevied weather packets stored in our database for station/object K3PPP. If no packets are shown the sender has not sent any weather packets the latest 1 day(s).
| Time | Temp. | Humidity | Pressure | Rain* | Wind** | Luminosity | Snow |
|---|---|---|---|---|---|---|---|
| 1778093710 | 10° C | 99% | 1009.7 hPa | 0 mm | - | 160 W/m² | - |
| 1778092801 | 11.11° C | 99% | 1009.5 hPa | 0 mm | - | 190 W/m² | - |
| 1778092496 | 11.11° C | 99% | 1009.4 hPa | 0 mm | - | 291 W/m² | - |
| 1778091286 | 10.56° C | 99% | 1009.5 hPa | 0 mm | - | 267 W/m² | - |
| 1778089769 | 10.56° C | 99% | 1009.6 hPa | 0 mm | - | 223 W/m² | - |
| 1778089467 | 11.11° C | 99% | 1009.7 hPa | 0 mm | - | 134 W/m² | - |
| 1778087042 | 11.67° C | 99% | 1009.3 hPa | 0 mm | - | 504 W/m² | - |
| 1778086439 | 11.67° C | 99% | 1009.5 hPa | 1.27 mm | - | 287 W/m² | - |
| 1778085826 | 11.67° C | 99% | 1009.2 hPa | 0 mm | - | 238 W/m² | - |
| 1778084612 | 13.33° C | 99% | 1008.8 hPa | 0 mm | - | 340 W/m² | - |
| 1778084309 | 13.33° C | 99% | 1008.8 hPa | 0 mm | - | 57 W/m² | - |
| 1778081662 | 12.78° C | 99% | 1008.4 hPa | 0 mm | - | 100 W/m² | - |
| 1778081056 | 12.78° C | 99% | 1008.3 hPa | 0 mm | - | 61 W/m² | - |
| 1778079845 | 12.78° C | 99% | 1008.3 hPa | 0 mm | - | 58 W/m² | - |
| 1778079238 | 12.78° C | 99% | 1008 hPa | 0 mm | - | 68 W/m² | - |
| 1778078936 | 12.78° C | 99% | 1007.9 hPa | 0 mm | - | 57 W/m² | - |
| 1778078632 | 12.78° C | 99% | 1008.1 hPa | 0 mm | - | 52 W/m² | - |
| 1778078027 | 12.78° C | 99% | 1007.4 hPa | 0 mm | - | 63 W/m² | - |
| 1778077726 | 12.78° C | 99% | 1007.6 hPa | 0 mm | - | 49 W/m² | - |
| 1778076819 | 12.78° C | 99% | 1007.5 hPa | 0 mm | - | 68 W/m² | - |
| 1778076517 | 12.78° C | 99% | 1007.3 hPa | 0 mm | - | 67 W/m² | - |
| 1778075607 | 12.78° C | 99% | 1007.5 hPa | 0 mm | - | 101 W/m² | - |
| 1778075000 | 12.22° C | 99% | 1007.6 hPa | 0 mm | - | 75 W/m² | - |
| 1778074394 | 12.22° C | 99% | 1007.6 hPa | 0 mm | - | 39 W/m² | - |
| 1778073788 | 12.22° C | 99% | 1007.9 hPa | 0 mm | - | 42 W/m² | - |
* Rain latest hour (hover to see other rain measurements)
** Current wind speed in m/s (hover to see current wind gust speed)